Regional Weather Roundup
Issued by NWS Cleveland, OH

Home | Current Version | Previous Version | Text Only | Print | Product List | Glossary Off
Versions: 1 2 3 4 5 6 7 8 9 10 11 12 13 14 15 16 17 18 19 20 21 22 23 24 25 26 27 28 29 30 31 32 33 34 35 36 37 38 39 40 41 42 43 44 45 46 47 48 49 50

000
ASUS41 KCLE 042102
RWRCLE
OHIO REGIONAL WEATHER ROUNDUP
NATIONAL WEATHER SERVICE CLEVELAND, OH
500 PM EDT TUE AUG 04 2015

NOTE: "FAIR" INDICATES FEW OR NO CLOUDS BELOW 12,000 FEET WITH NO
SIGNIFICANT WEATHER AND/OR OBSTRUCTIONS TO VISIBILITY.

OHZ001>008-015>018-024>027-034-035-043-044-042200-
   NORTHWEST OHIO

CITY           SKY/WX    TMP DP  RH WIND       PRES   REMARKS
DEFIANCE       PTSUNNY   81  56  42 W8        29.95F
FINDLAY        MOSUNNY   81  57  43 W14       29.94F
TOLEDO EXPRESS SUNNY     78  54  43 W10       29.94S
TOLEDO EXEC    PTSUNNY   82  55  39 NW15      29.94S
LIMA           PTSUNNY   79  56  45 W12G22    29.97F
$$

OHZ009>014-019>023-028>033-038-089-042200-
   NORTHEAST OHIO

CITY           SKY/WX    TMP DP  RH WIND       PRES   REMARKS
CLE-HOPKINS    MOSUNNY   80  54  40 W14G22    29.96R
CLE-LAKEFRONT  SUNNY     80  61  52 W15       29.92F
CUY CO. ARPT   MOSUNNY   81  57  44 W16       29.94F
LORAIN-ELYRIA  MOSUNNY   77  55  46 W9        29.95S
ASHTABULA      MOSUNNY   79  50  36 W13G22    29.94F
AKRON-CANTON   MOSUNNY   83  53  35 NW13      29.96S
WOOSTER        MOSUNNY   79  55  43 W8        29.97S
MANSFIELD      MOSUNNY   80  55  42 W9        29.98S
YOUNGSTOWN     PTSUNNY   78  50  37 W10       29.95F
$$

OHZ042-051>053-060>062-070>072-077>081-042200-
  SOUTHWEST OHIO

CITY           SKY/WX    TMP DP  RH WIND       PRES   REMARKS
CINC-COVINGTON CLOUDY    80  64  58 W12       29.98F
CINC-LUNKEN    PTSUNNY   81  57  43 W9        29.97S
HAMILTON       PTSUNNY   82  59  45 W7        29.98F
DAYTON         PTSUNNY   80  57  45 W12       29.99F
WRIGHT-PAT AFB SUNNY     82  57  42 W7        29.96F
DAYTON GENERAL MOSUNNY   81  57  43 W10       29.98S
WILMINGTON     MOSUNNY   82  54  37 W14       29.98S
$$

OHZ036-037-039>041-045>050-054>059-063>069-073>076-082>088-042200-
  CENTRAL AND SOUTHEAST OHIO

CITY           SKY/WX    TMP DP  RH WIND       PRES   REMARKS
COLUMBUS       PTSUNNY   84  55  36 W9        29.95F
OSU AIRPORT    MOSUNNY   82  59  45 W13       29.96F
BOLTON FIELD   NOT AVBL
RICKENBACK AFB MOSUNNY   82  58  44 W8        29.95F
NEWARK         MOSUNNY   84  56  38 W9        29.95F
MARION         MOSUNNY   81  55  40 W9G18     29.97S
LANCASTER      MOSUNNY   82  60  47 NW7       29.96F
ZANESVILLE     SUNNY     82  54  37 W6        29.96S
NEW PHILLY     MOSUNNY   80  56  43 SW6       29.96F
$$


USA.gov is the U.S. government's official web portal to all federal, state and local government web resources and services.